TimeCST,TemperatureF,Dew PointF,Humidity,Sea Level PressureIn,VisibilityMPH,Wind Direction,Wind SpeedMPH,Gust SpeedMPH,PrecipitationIn,Events,Conditions,WindDirDegrees,DateUTC
12:53 AM,35.1,33.1,92,30.06,10.0,NNW,3.5,-,0.00,Rain,Light Rain,340,2013-02-13 06:53:00
1:18 AM,35.6,32.0,87,30.03,10.0,Calm,Calm,-,0.00,,Overcast,0,2013-02-13 07:18:00
1:53 AM,33.1,32.0,96,30.05,5.0,Calm,Calm,-,0.00,,Mostly Cloudy,0,2013-02-13 07:53:00
2:15 AM,33.8,32.0,93,30.04,4.0,Calm,Calm,-,N/A,,Overcast,0,2013-02-13 08:15:00
2:24 AM,35.6,32.0,87,30.04,7.0,WNW,4.6,-,N/A,,Overcast,290,2013-02-13 08:24:00
2:53 AM,35.1,32.0,89,30.06,10.0,West,3.5,-,N/A,,Overcast,280,2013-02-13 08:53:00
3:07 AM,35.6,33.8,93,30.03,10.0,West,3.5,-,N/A,,Overcast,270,2013-02-13 09:07:00
3:51 AM,35.6,33.8,93,30.03,10.0,Calm,Calm,-,N/A,,Overcast,0,2013-02-13 09:51:00
3:53 AM,36.0,33.1,89,30.05,10.0,West,4.6,-,N/A,,Overcast,260,2013-02-13 09:53:00
4:39 AM,35.6,33.8,93,30.03,10.0,West,3.5,-,N/A,,Overcast,270,2013-02-13 10:39:00
4:53 AM,36.0,33.1,89,30.05,10.0,West,3.5,-,N/A,,Overcast,270,2013-02-13 10:53:00
5:48 AM,35.6,33.8,93,30.03,10.0,West,3.5,-,N/A,,Overcast,260,2013-02-13 11:48:00
5:53 AM,36.0,33.1,89,30.06,10.0,WSW,3.5,-,N/A,,Overcast,250,2013-02-13 11:53:00
6:53 AM,35.1,32.0,89,30.08,10.0,Calm,Calm,-,N/A,,Overcast,0,2013-02-13 12:53:00
7:13 AM,35.6,32.0,87,30.05,9.0,West,4.6,-,N/A,,Overcast,260,2013-02-13 13:13:00
7:53 AM,35.1,33.1,92,30.08,6.0,SW,5.8,-,N/A,,Overcast,230,2013-02-13 13:53:00
8:48 AM,35.6,33.8,93,30.07,10.0,WSW,8.1,-,N/A,,Overcast,240,2013-02-13 14:48:00
8:53 AM,36.0,33.1,89,30.10,10.0,WSW,6.9,-,N/A,,Overcast,240,2013-02-13 14:53:00
9:48 AM,37.4,33.8,87,30.06,10.0,Variable,4.6,-,N/A,,Overcast,0,2013-02-13 15:48:00
9:53 AM,37.9,34.0,86,30.09,10.0,WSW,8.1,-,N/A,,Overcast,240,2013-02-13 15:53:00
10:53 AM,39.9,34.0,79,30.09,10.0,Variable,4.6,-,N/A,,Mostly Cloudy,0,2013-02-13 16:53:00
11:34 AM,42.8,35.6,76,30.05,10.0,SW,8.1,-,N/A,,Scattered Clouds,230,2013-02-13 17:34:00
11:53 AM,45.0,35.1,68,30.07,10.0,WSW,8.1,-,N/A,,Partly Cloudy,240,2013-02-13 17:53:00
12:53 PM,48.9,35.1,59,30.04,10.0,West,6.9,-,N/A,,Clear,260,2013-02-13 18:53:00
1:53 PM,51.1,32.0,48,30.01,10.0,SW,8.1,-,N/A,,Clear,220,2013-02-13 19:53:00
2:53 PM,54.0,32.0,43,29.99,10.0,WSW,6.9,-,N/A,,Clear,240,2013-02-13 20:53:00
3:53 PM,55.9,28.9,36,29.98,10.0,West,5.8,-,N/A,,Clear,260,2013-02-13 21:53:00
4:53 PM,55.0,28.9,37,29.97,10.0,SW,5.8,-,N/A,,Clear,230,2013-02-13 22:53:00
5:53 PM,52.0,30.0,43,29.97,10.0,Calm,Calm,-,N/A,,Clear,0,2013-02-13 23:53:00
6:53 PM,43.0,30.9,62,29.98,10.0,Calm,Calm,-,N/A,,Clear,0,2013-02-14 00:53:00
7:53 PM,41.0,30.9,67,29.99,10.0,West,3.5,-,N/A,,Clear,270,2013-02-14 01:53:00
8:53 PM,37.9,30.0,73,30.00,10.0,West,3.5,-,N/A,,Clear,260,2013-02-14 02:53:00
9:53 PM,37.9,30.0,73,30.01,10.0,Calm,Calm,-,N/A,,Clear,0,2013-02-14 03:53:00
10:53 PM,37.9,28.0,68,30.01,10.0,SW,3.5,-,N/A,,Clear,230,2013-02-14 04:53:00
11:53 PM,36.0,27.0,70,30.01,10.0,WSW,3.5,-,N/A,,Clear,250,2013-02-14 05:53:00